Location: Ulm
(48.3980°N, 9.9777°E)
Time: 08:50:24
(UTC+02:00)

ISS - Visible Passes

Search period start: 28 May 2017 00:00
Search period end: 07 June 2017 00:00
Orbit: 402 x 408 km, 51.6° (Epoch: 28 May)

Date Brightness Start Highest point End Pass type
(mag) Time Alt. Az. Time Alt. Az. Time Alt. Az.
28 May -2.7 00:06:29 10° WNW 00:09:41 45° N 00:12:52 10° ENE visible
28 May -3.7 01:43:08 10° WNW 01:46:26 75° NNE 01:47:25 42° E visible
28 May -1.3 03:19:55 10° W 03:19:57 10° W 03:19:57 10° W visible
28 May -2.8 23:14:19 10° W 23:17:32 48° N 23:20:46 10° ENE visible
29 May -3.2 00:51:05 10° WNW 00:54:21 57° NNE 00:56:01 25° E visible
29 May -1.7 02:27:40 10° WNW 02:28:37 17° W 02:28:37 17° W visible
29 May -3.1 22:22:08 10° W 22:25:25 57° NNW 22:28:40 10° ENE visible
29 May -2.9 23:58:59 10° WNW 00:02:13 48° N 00:05:09 12° E visible
30 May -2.9 01:35:33 10° WNW 01:37:45 38° W 01:37:45 38° W visible
30 May -2.7 23:06:51 10° WNW 23:10:03 45° N 23:13:15 10° ENE visible
31 May -3.9 00:43:28 10° WNW 00:46:46 84° NNE 00:47:05 71° E visible
31 May -2.7 22:14:39 10° W 22:17:52 46° N 22:21:05 10° ENE visible
31 May -3.4 23:51:23 10° WNW 23:54:40 62° NNE 23:56:30 23° E visible
01 Jun -1.7 01:28:01 10° W 01:29:07 18° W 01:29:07 18° W visible
01 Jun -3.0 22:59:16 10° WNW 23:02:30 51° N 23:05:44 10° E visible
02 Jun -3.4 00:35:49 10° WNW 00:38:36 49° WSW 00:38:36 49° WSW visible
02 Jun -2.7 22:07:06 10° WNW 22:10:18 46° N 22:13:30 10° E visible
02 Jun -3.9 23:43:40 10° WNW 23:46:59 85° SSW 23:48:06 39° ESE visible
03 Jun -3.6 22:51:33 10° WNW 22:54:51 69° NNE 22:57:39 14° E visible
04 Jun -2.3 00:28:16 10° W 00:30:17 25° WSW 00:30:17 25° WSW visible
04 Jun -3.1 21:59:25 10° WNW 22:02:40 54° N 22:05:55 10° E visible
04 Jun -3.5 23:35:58 10° WNW 23:39:10 47° SSW 23:39:51 39° S visible
05 Jun -3.9 22:43:47 10° WNW 22:47:05 74° SSW 22:49:26 18° ESE visible
06 Jun -1.4 00:21:08 10° W 00:22:05 13° WSW 00:22:05 13° WSW visible
06 Jun -3.7 21:51:37 10° WNW 21:54:56 78° NNE 21:58:13 10° ESE visible
06 Jun -2.5 23:28:26 10° W 23:31:10 24° SW 23:31:42 23° SSW visible
